Waarnemingen

Advertentie
Mijn weer
Edsbyn, Zweden (2336): temperatuur & dauwpunt: 18.08.2019 01:00:00 - 24.08.2019 01:00:00 (CEST)Edsbyn, Zweden (2336): windsnelheid: 18.08.2019 01:00:00 - 24.08.2019 01:00:00 (CEST)Edsbyn, Zweden (2336): windrichting: 18.08.2019 01:00:00 - 24.08.2019 01:00:00 (CEST)Edsbyn, Zweden (2336): luchtdruk: 18.08.2019 01:00:00 - 24.08.2019 01:00:00 (CEST)Edsbyn, Zweden (2336): zicht: 18.08.2019 01:00:00 - 24.08.2019 01:00:00 (CEST)
Datum & Tijd tt [°C] td [°C] ff [km/u] ff [kn] dd ppp [hPa] vv [km]
24.08.2019 01:00:00 - - - - - - -
24.08.2019 00:00:00 9,6 9,5 4 2 W 1017,5 22
23.08.2019 23:00:00 10,0 9,1 4 2 Z 1016,7 24
23.08.2019 22:00:00 11,9 8,7 7 4 NNW 1016,1 50
23.08.2019 21:00:00 12,9 9,3 7 4 N 1015,4 50
23.08.2019 20:00:00 15,8 9,7 7 4 WNW 1014,6 50
23.08.2019 19:00:00 17,8 9,2 7 4 WNW 1013,9 45
23.08.2019 18:00:00 17,8 9,9 11 6 NNW 1013,4 50
23.08.2019 17:00:00 19,2 8,5 14 8 W 1013,0 45
23.08.2019 16:00:00 18,3 9,1 14 8 WNW 1012,8 28
23.08.2019 15:00:00 16,7 9,9 11 6 ZW 1012,6 35
23.08.2019 14:00:00 17,6 9,0 11 6 WZW 1012,6 24
23.08.2019 13:00:00 18,1 9,2 7 4 W 1012,6 40
23.08.2019 12:00:00 17,0 9,7 7 4 W 1012,8 40
23.08.2019 11:00:00 16,5 9,7 14 8 ZW 1012,9 50
23.08.2019 10:00:00 15,8 10,6 7 4 WZW 1013,0 35
23.08.2019 09:00:00 15,4 11,0 11 6 ZZW 1013,0 22
23.08.2019 08:00:00 14,4 11,5 14 8 Z 1013,1 50
23.08.2019 07:00:00 13,1 11,7 7 4 ZZO 1013,1 50
23.08.2019 06:00:00 12,5 11,7 11 6 ZZO 1013,2 35
23.08.2019 05:00:00 12,3 11,5 11 6 ZO 1013,2 45
23.08.2019 04:00:00 13,1 12,2 7 4 ZZO 1013,7 45
23.08.2019 03:00:00 13,1 12,3 14 8 ZZO 1014,2 40
23.08.2019 02:00:00 12,9 12,4 11 6 ZO 1014,8 27
23.08.2019 01:00:00 13,0 12,4 7 4 OZO 1015,3 45
23.08.2019 00:00:00 13,7 11,9 11 6 ZZO 1015,9 30
22.08.2019 23:00:00 14,6 11,7 11 6 ZZO 1016,3 28
22.08.2019 22:00:00 14,4 12,9 14 8 ZO 1016,6 50
22.08.2019 21:00:00 15,1 12,0 14 8 ZZO 1016,8 45
22.08.2019 20:00:00 15,2 12,5 4 2 OZO 1017,2 45
22.08.2019 19:00:00 15,3 12,1 18 10 ZO 1017,7 45
22.08.2019 18:00:00 15,5 11,7 18 10 ZO 1018,5 50
22.08.2019 17:00:00 16,7 12,0 22 12 ZO 1019,0 35
22.08.2019 16:00:00 16,5 10,8 22 12 ZO 1019,4 40
22.08.2019 15:00:00 16,9 9,6 25 14 ZO 1020,1 45
22.08.2019 14:00:00 17,7 6,5 25 14 ZO 1020,4 40
22.08.2019 13:00:00 17,2 7,0 22 12 ZO 1020,8 25
22.08.2019 12:00:00 16,6 6,4 11 6 ZZO 1021,1 45
22.08.2019 11:00:00 15,6 6,9 7 4 ZO 1021,6 25
22.08.2019 10:00:00 14,8 6,9 4 2 Z 1021,8 25
22.08.2019 09:00:00 13,3 5,9 4 2 N 1021,8 45
22.08.2019 08:00:00 11,5 7,0 0 0 N 1021,7 40
22.08.2019 07:00:00 8,9 6,2 4 2 NNW 1022,0 45
22.08.2019 06:00:00 6,4 6,0 4 2 ZZO 1021,9 18
22.08.2019 05:00:00 6,8 5,7 0 0 N 1021,8 10
22.08.2019 04:00:00 9,7 5,9 7 4 NW 1021,5 50
22.08.2019 03:00:00 10,2 6,5 7 4 NW 1021,1 50
22.08.2019 02:00:00 11,4 6,9 11 6 WNW 1020,8 50
22.08.2019 01:00:00 12,7 7,8 11 6 NW 1020,3 50
22.08.2019 00:00:00 13,6 8,0 7 4 NW 1019,9 50
21.08.2019 23:00:00 13,9 8,5 11 6 WNW 1019,6 50
21.08.2019 22:00:00 14,2 8,2 7 4 WNW 1019,2 50
21.08.2019 21:00:00 15,2 7,7 11 6 NW 1018,7 50
21.08.2019 20:00:00 16,2 8,9 4 2 NW 1018,5 50
21.08.2019 19:00:00 18,5 7,3 7 4 W 1018,0 50
21.08.2019 18:00:00 19,3 8,0 7 4 NNW 1017,7 40
21.08.2019 17:00:00 20,1 7,5 7 4 WNW 1017,7 40
21.08.2019 16:00:00 19,5 8,2 4 2 NW 1017,5 45
21.08.2019 15:00:00 19,2 9,1 7 4 NNW 1017,4 45
21.08.2019 14:00:00 19,2 9,1 4 2 WZW 1017,4 50
21.08.2019 13:00:00 18,9 9,1 14 8 NW 1017,4 50
21.08.2019 12:00:00 18,2 8,7 14 8 NW 1017,2 45
21.08.2019 11:00:00 18,7 9,7 11 6 NNW 1016,9 40
21.08.2019 10:00:00 17,3 10,2 4 2 N 1016,8 45
21.08.2019 09:00:00 15,5 9,8 4 2 NNO 1016,5 35
21.08.2019 08:00:00 12,2 9,9 4 2 NNW 1016,2 50
21.08.2019 07:00:00 9,9 9,1 4 2 W 1015,8 45
21.08.2019 06:00:00 8,3 8,2 7 4 NW 1015,3 18
21.08.2019 05:00:00 8,0 7,9 7 4 NNW 1015,1 13
21.08.2019 04:00:00 8,7 8,6 0 0 N 1014,8 11
21.08.2019 03:00:00 9,6 9,5 7 4 NW 1014,3 17
21.08.2019 02:00:00 9,6 9,0 4 2 ZZW 1013,7 50
21.08.2019 01:00:00 10,9 10,3 4 2 ONO 1013,3 35
21.08.2019 00:00:00 11,2 9,9 7 4 ONO 1013,1 28
20.08.2019 23:00:00 13,0 9,3 4 2 OZO 1012,8 50
20.08.2019 22:00:00 14,7 9,5 4 2 Z 1012,5 50
20.08.2019 21:00:00 17,3 10,2 7 4 Z 1011,8 50
20.08.2019 20:00:00 18,7 9,7 11 6 Z 1011,0 50
20.08.2019 19:00:00 20,3 8,9 14 8 Z 1010,6 40
20.08.2019 18:00:00 21,3 8,2 18 10 ZZW 1010,5 35
20.08.2019 17:00:00 21,7 8,6 22 12 Z 1010,3 50
20.08.2019 16:00:00 20,9 8,8 14 8 ZZW 1010,2 40
20.08.2019 15:00:00 21,6 8,8 18 10 Z 1009,9 50
20.08.2019 14:00:00 21,0 8,9 18 10 ZZW 1009,7 40
20.08.2019 13:00:00 20,7 9,0 14 8 ZZW 1009,2 40
20.08.2019 12:00:00 19,4 9,3 11 6 ZW 1009,0 45
20.08.2019 11:00:00 18,5 10,8 18 10 Z 1008,8 30
20.08.2019 10:00:00 17,7 11,5 14 8 Z 1008,6 40
20.08.2019 09:00:00 16,4 10,7 14 8 Z 1008,4 30
20.08.2019 08:00:00 15,1 10,9 7 4 Z 1007,9 45
20.08.2019 07:00:00 13,7 10,7 7 4 Z 1007,7 35
20.08.2019 06:00:00 12,5 11,1 7 4 Z 1007,4 45
20.08.2019 05:00:00 11,5 10,4 7 4 ZZO 1006,8 35
20.08.2019 04:00:00 12,5 11,1 7 4 ZZO 1006,5 30
20.08.2019 03:00:00 11,6 11,1 4 2 ZZO 1006,1 30
20.08.2019 02:00:00 11,8 11,0 0 0 N 1005,9 40
20.08.2019 01:00:00 12,8 10,9 4 2 O 1005,5 19
20.08.2019 00:00:00 14,7 10,5 7 4 Z 1005,1 50
19.08.2019 23:00:00 15,3 10,1 11 6 ZZW 1005,1 50
19.08.2019 22:00:00 13,4 10,4 4 2 NNO 1004,8 50
19.08.2019 21:00:00 15,9 9,3 11 6 Z 1004,2 50
19.08.2019 20:00:00 18,1 8,9 14 8 Z 1003,6 50
19.08.2019 19:00:00 19,5 8,8 18 10 Z 1003,0 50
19.08.2019 18:00:00 20,3 8,9 18 10 Z 1002,6 40
19.08.2019 17:00:00 20,3 8,6 14 8 ZZW 1002,2 40
19.08.2019 16:00:00 21,2 9,1 18 10 ZZW 1001,7 50
19.08.2019 15:00:00 20,0 10,4 11 6 ZZW 1001,2 50
19.08.2019 14:00:00 19,5 8,8 14 8 ZW 1001,0 50
19.08.2019 13:00:00 20,0 10,4 11 6 ZW 1000,3 22
19.08.2019 12:00:00 18,7 11,0 7 4 WZW 999,7 35
19.08.2019 11:00:00 18,3 12,1 11 6 ZW 999,3 29
19.08.2019 10:00:00 15,9 14,4 4 2 ZW 998,9 30
19.08.2019 09:00:00 15,1 14,5 4 2 ZW 998,8 20
19.08.2019 08:00:00 14,2 14,2 4 2 WNW 998,4 15
19.08.2019 07:00:00 14,0 14,0 4 2 NW 998,3 10
19.08.2019 06:00:00 14,1 14,1 4 2 WNW 998,4 8
19.08.2019 05:00:00 13,9 13,9 0 0 N 999,0 9
19.08.2019 04:00:00 13,8 13,8 4 2 WNW 999,5 21
19.08.2019 03:00:00 13,5 13,5 4 2 N 1000,1 11
19.08.2019 02:00:00 13,2 13,2 4 2 W 1000,3 7
19.08.2019 01:00:00 13,0 13,0 4 2 Z 1000,9 24
19.08.2019 00:00:00 12,8 12,5 7 4 O 1001,1 28
18.08.2019 23:00:00 14,4 14,1 0 0 N 1001,5 27
18.08.2019 22:00:00 15,6 15,1 14 8 ZO 1001,9 22
18.08.2019 21:00:00 16,0 15,4 18 10 ZO 1002,2 17
18.08.2019 20:00:00 16,4 15,6 18 10 ZO 1002,8 25
18.08.2019 19:00:00 16,7 15,7 18 10 ZO 1003,2 25
18.08.2019 18:00:00 17,0 15,3 18 10 ZO 1003,3 35
18.08.2019 17:00:00 17,0 15,5 25 14 ZO 1003,4 40
18.08.2019 16:00:00 17,6 14,7 22 12 ZO 1003,3 45
18.08.2019 15:00:00 18,5 15,9 22 12 ZO 1003,6 30
18.08.2019 14:00:00 18,7 15,4 22 12 ZO 1003,7 29
18.08.2019 13:00:00 17,2 16,1 25 14 ZO 1003,7 21
18.08.2019 12:00:00 17,7 15,5 18 10 ZO 1003,8 40
18.08.2019 11:00:00 17,1 15,3 25 14 ZO 1003,7 45
18.08.2019 10:00:00 16,9 15,8 25 14 ZO 1003,4 35
18.08.2019 09:00:00 16,1 15,3 22 12 ZO 1003,6 35
18.08.2019 08:00:00 15,9 15,3 14 8 ZO 1003,4 30
18.08.2019 07:00:00 15,4 14,9 14 8 ZO 1003,5 27
18.08.2019 06:00:00 15,1 14,8 22 12 ZO 1003,4 28
18.08.2019 05:00:00 15,1 14,6 18 10 ZO 1003,3 24
18.08.2019 04:00:00 15,3 14,8 25 14 ZZO 1003,5 29
18.08.2019 03:00:00 15,4 15,1 29 16 ZZO 1003,7 10
18.08.2019 02:00:00 15,5 14,9 25 14 ZZO 1004,2 24
18.08.2019 01:00:00 15,8 14,5 25 14 ZO 1004,7 30

tt = temperatuur
td = dauwpunt
ff = windsnelheid
dd = windrichting
ppp = luchtdruk
vv = zicht

Weerstations in de omgeving